,,PA_Meas_PMT16A,,PR_Meas_QMR101_102,,RH_Meas_QMH101,,SR_Meas_QMS101,,TA_Meas_QMH101,,GenWind,,GenWind,
time,status,PA,status,PR,status,RH,status,SR,status,TA,status,DirAvg,status,SpdAvg,
2013-12-13, 00:00:04,VALID,916.632,VALID,0,VALID,97.0994,VALID,0,VALID,19.8018,VALID,167,VALID,0,
2013-12-13, 00:01:04,VALID,916.641,VALID,0,VALID,97.1071,VALID,0,VALID,19.8018,VALID,163,VALID,0,
2013-12-13, 00:02:04,VALID,916.65,VALID,0,VALID,97.0842,VALID,0,VALID,19.8213,VALID,168,VALID,0,
2013-12-13, 00:03:04,VALID,916.654,VALID,0.2,VALID,97.0994,VALID,0,VALID,19.8213,VALID,168,VALID,0,
2013-12-13, 00:04:04,VALID,916.667,VALID,0,VALID,97.0918,VALID,0,VALID,19.8213,VALID,157,VALID,0,
2013-12-13, 00:05:04,VALID,916.692,VALID,0,VALID,97.0766,VALID,0,VALID,19.8213,VALID,157,VALID,0,
2013-12-13, 00:06:04,VALID,916.692,VALID,0,VALID,97.0994,VALID,0,VALID,19.8408,VALID,157,VALID,0,
2013-12-13, 00:07:04,VALID,916.708,VALID,0,VALID,97.0918,VALID,0,VALID,19.8408,VALID,157,VALID,0,
2013-12-13, 00:08:04,VALID,916.717,VALID,0,VALID,97.0842,VALID,0,VALID,19.8213,VALID,148,VALID,0,
2013-12-13, 00:09:04,VALID,916.747,VALID,0,VALID,97.0918,VALID,0,VALID,19.8018,VALID,148,VALID,0,
2013-12-13, 00:10:04,VALID,916.736,VALID,0.2,VALID,97.0994,VALID,0,VALID,19.8018,VALID,148,VALID,0,
2013-12-13, 00:11:04,VALID,916.74,VALID,0,VALID,97.0994,VALID,0,VALID,19.7628,VALID,148,VALID,0,
2013-12-13, 00:12:04,VALID,916.755,VALID,0,VALID,97.0918,VALID,0,VALID,19.7433,VALID,148,VALID,0,
2013-12-13, 00:13:04,VALID,916.77,VALID,0,VALID,97.1071,VALID,0.107441,VALID,19.7418,VALID,148,VALID,0,
2013-12-13, 00:14:04,VALID,916.724,VALID,0,VALID,97.0918,VALID,0,VALID,19.7223,VALID,134,VALID,0,
2013-12-13, 00:15:04,VALID,916.718,VALID,0.2,VALID,97.0842,VALID,0,VALID,19.7028,VALID,135,VALID,0,
2013-12-13, 00:16:04,VALID,916.69,VALID,0,VALID,97.0842,VALID,0,VALID,19.7028,VALID,134,VALID,0,
2013-12-13, 00:17:04,VALID,916.715,VALID,0,VALID,97.0918,VALID,0,VALID,19.7238,VALID,134,VALID,0,
2013-12-13, 00:18:04,VALID,916.691,VALID,0,VALID,97.0918,VALID,0,VALID,19.7238,VALID,134,VALID,0,
2013-12-13, 00:19:04,VALID,916.705,VALID,0,VALID,97.069,VALID,0,VALID,19.7028,VALID,135,VALID,0,
2013-12-13, 00:20:04,VALID,916.661,VALID,0.2,VALID,97.0766,VALID,0,VALID,19.7028,VALID,134,VALID,0,
2013-12-13, 00:21:04,VALID,916.671,VALID,0,VALID,97.0766,VALID,0,VALID,19.7223,VALID,134,VALID,0,
2013-12-13, 00:22:04,VALID,916.675,VALID,0,VALID,97.069,VALID,0,VALID,19.7223,VALID,134,VALID,0,
2013-12-13, 00:23:04,VALID,916.674,VALID,0,VALID,97.0842,VALID,0,VALID,19.7028,VALID,63,VALID,0,
2013-12-13, 00:24:04,VALID,916.647,VALID,0,VALID,97.0842,VALID,0,VALID,19.6623,VALID,42,VALID,0,
2013-12-13, 00:25:04,VALID,916.634,VALID,0,VALID,97.0613,VALID,0,VALID,19.6848,VALID,42,VALID,0,
2013-12-13, 00:26:04,VALID,916.644,VALID,0,VALID,97.069,VALID,0.107441,VALID,19.6638,VALID,42,VALID,0,
2013-12-13, 00:27:04,VALID,916.596,VALID,0.2,VALID,97.0766,VALID,0,VALID,19.6443,VALID,42,VALID,0,
2013-12-13, 00:28:04,VALID,916.609,VALID,0,VALID,97.0461,VALID,0,VALID,19.6458,VALID,42,VALID,0,
2013-12-13, 00:29:04,VALID,916.59,VALID,0,VALID,97.0461,VALID,0,VALID,19.6053,VALID,42,VALID,0,
2013-12-13, 00:30:04,VALID,916.612,VALID,0.2,VALID,97.0461,VALID,0,VALID,19.6248,VALID,42,VALID,0,
2013-12-13, 00:31:04,VALID,916.572,VALID,0,VALID,97.0308,VALID,0,VALID,19.6263,VALID,42,VALID,0,
2013-12-13, 00:32:04,VALID,916.519,VALID,0,VALID,97.0461,VALID,0,VALID,19.6458,VALID,42,VALID,0,
2013-12-13, 00:33:04,VALID,916.526,VALID,0.2,VALID,97.0461,VALID,0.107441,VALID,19.6248,VALID,42,VALID,0,
2013-12-13, 00:34:04,VALID,916.533,VALID,0,VALID,97.0537,VALID,0,VALID,19.6248,VALID,50,VALID,0,
2013-12-13, 00:35:04,VALID,916.521,VALID,0,VALID,97.0385,VALID,0,VALID,19.6668,VALID,77,VALID,0,
2013-12-13, 00:36:04,VALID,916.533,VALID,0.2,VALID,97.0385,VALID,0,VALID,19.6263,VALID,135,VALID,0,
2013-12-13, 00:37:04,VALID,916.511,VALID,0,VALID,97.0537,VALID,0,VALID,19.6248,VALID,131,VALID,0,
2013-12-13, 00:38:04,VALID,916.509,VALID,0,VALID,97.0613,VALID,0,VALID,19.6263,VALID,134,VALID,0,
2013-12-13, 00:39:04,VALID,916.524,VALID,0.2,VALID,97.0385,VALID,0,VALID,19.6248,VALID,137,VALID,0,
2013-12-13, 00:40:04,VALID,916.492,VALID,0,VALID,97.0385,VALID,0,VALID,19.6458,VALID,136,VALID,0,
2013-12-13, 00:41:04,VALID,916.461,VALID,0,VALID,97.0385,VALID,0,VALID,19.6458,VALID,136,VALID,0,
2013-12-13, 00:42:04,VALID,916.461,VALID,0,VALID,97.0537,VALID,0,VALID,19.6458,VALID,136,VALID,0,
2013-12-13, 00:43:04,VALID,916.448,VALID,0.2,VALID,97.0385,VALID,0,VALID,19.6248,VALID,136,VALID,0,
2013-12-13, 00:44:04,VALID,916.445,VALID,0,VALID,97.0461,VALID,0.107441,VALID,19.6248,VALID,136,VALID,0,
2013-12-13, 00:45:04,VALID,916.417,VALID,0,VALID,97.0308,VALID,0,VALID,19.6458,VALID,136,VALID,0,
2013-12-13, 00:46:04,VALID,916.418,VALID,0,VALID,97.0385,VALID,0,VALID,19.6458,VALID,136,VALID,0,
2013-12-13, 00:47:04,VALID,916.376,VALID,0.2,VALID,97.0308,VALID,0,VALID,19.6653,VALID,136,VALID,0,
2013-12-13, 00:48:04,VALID,916.362,VALID,0,VALID,97.0232,VALID,0,VALID,19.6653,VALID,136,VALID,0,
2013-12-13, 00:49:04,VALID,916.358,VALID,0,VALID,97.0537,VALID,0,VALID,19.6443,VALID,135,VALID,0,
2013-12-13, 00:50:04,VALID,916.335,VALID,0,VALID,97.0461,VALID,0,VALID,19.6458,VALID,135,VALID,0,
2013-12-13, 00:51:04,VALID,916.322,VALID,0.2,VALID,97.0537,VALID,0,VALID,19.6248,VALID,135,VALID,0,
2013-12-13, 00:52:04,VALID,916.325,VALID,0,VALID,97.0308,VALID,0,VALID,19.6263,VALID,135,VALID,0,
2013-12-13, 00:53:04,VALID,916.282,VALID,0,VALID,97.0461,VALID,0,VALID,19.6248,VALID,135,VALID,0,
2013-12-13, 00:54:04,VALID,916.263,VALID,0,VALID,97.0537,VALID,0,VALID,19.6248,VALID,136,VALID,0,
2013-12-13, 00:55:04,VALID,916.245,VALID,0,VALID,97.0461,VALID,0,VALID,19.6263,VALID,135,VALID,0,
2013-12-13, 00:56:04,VALID,916.272,VALID,0,VALID,97.0613,VALID,0,VALID,19.6263,VALID,135,VALID,0,
2013-12-13, 00:57:04,VALID,916.248,VALID,0.2,VALID,97.0461,VALID,0,VALID,19.6248,VALID,135,VALID,0,
2013-12-13, 00:58:04,VALID,916.196,VALID,0,VALID,97.0537,VALID,0,VALID,19.6263,VALID,135,VALID,0,
2013-12-13, 00:59:04,VALID,916.216,VALID,0,VALID,97.0613,VALID,0,VALID,19.6458,VALID,135,VALID,0,
2013-12-13, 01:00:04,VALID,916.191,VALID,0,VALID,97.0613,VALID,0,VALID,19.6248,VALID,135,VALID,0,
2013-12-13, 01:01:04,VALID,916.193,VALID,0,VALID,97.0613,VALID,0,VALID,19.6053,VALID,135,VALID,0,
2013-12-13, 01:02:04,VALID,916.215,VALID,0,VALID,97.0537,VALID,0,VALID,19.6068,VALID,122,VALID,0,
2013-12-13, 01:03:04,VALID,916.182,VALID,0.2,VALID,97.069,VALID,0,VALID,19.6068,VALID,122,VALID,0,
2013-12-13, 01:04:04,VALID,916.194,VALID,0,VALID,97.0537,VALID,0,VALID,19.5858,VALID,122,VALID,0,
2013-12-13, 01:05:04,VALID,916.19,VALID,0,VALID,97.0537,VALID,0.107441,VALID,19.5663,VALID,122,VALID,0,
2013-12-13, 01:06:04,VALID,916.162,VALID,0,VALID,97.0613,VALID,0,VALID,19.5663,VALID,122,VALID,0,
2013-12-13, 01:07:04,VALID,916.167,VALID,0,VALID,97.069,VALID,0,VALID,19.5663,VALID,133,VALID,0,
2013-12-13, 01:08:04,VALID,916.149,VALID,0,VALID,97.069,VALID,0,VALID,19.5873,VALID,133,VALID,0,
2013-12-13, 01:09:04,VALID,916.136,VALID,0.2,VALID,97.0537,VALID,0.107441,VALID,19.5663,VALID,135,VALID,0,
2013-12-13, 01:10:04,VALID,916.139,VALID,0,VALID,97.0461,VALID,0,VALID,19.5873,VALID,135,VALID,0,
2013-12-13, 01:11:04,VALID,916.105,VALID,0,VALID,97.0613,VALID,0,VALID,19.5873,VALID,140,VALID,0,
2013-12-13, 01:12:04,VALID,916.087,VALID,0,VALID,97.0613,VALID,0,VALID,19.5663,VALID,141,VALID,0,
2013-12-13, 01:13:04,VALID,916.063,VALID,0,VALID,97.069,VALID,0,VALID,19.5468,VALID,141,VALID,0,
2013-12-13, 01:14:04,VALID,916.039,VALID,0,VALID,97.069,VALID,0,VALID,19.5663,VALID,141,VALID,0,
2013-12-13, 01:15:04,VALID,916.027,VALID,0,VALID,97.0613,VALID,0,VALID,19.5663,VALID,141,VALID,0,
2013-12-13, 01:16:04,VALID,916.009,VALID,0.2,VALID,97.0461,VALID,0,VALID,19.5663,VALID,136,VALID,0,
2013-12-13, 01:17:04,VALID,916.005,VALID,0,VALID,97.0842,VALID,0,VALID,19.5483,VALID,128,VALID,0,
2013-12-13, 01:18:04,VALID,915.983,VALID,0,VALID,97.0918,VALID,0,VALID,19.5873,VALID,128,VALID,0,
2013-12-13, 01:19:04,VALID,915.996,VALID,0,VALID,97.069,VALID,0,VALID,19.5678,VALID,137,VALID,0,
2013-12-13, 01:20:04,VALID,915.968,VALID,0,VALID,97.0766,VALID,0,VALID,19.5288,VALID,139,VALID,0,
2013-12-13, 01:21:04,VALID,915.994,VALID,0,VALID,97.069,VALID,0,VALID,19.5273,VALID,134,VALID,0,
2013-12-13, 01:22:04,VALID,915.942,VALID,0.2,VALID,97.0613,VALID,0,VALID,19.5288,VALID,141,VALID,0,
2013-12-13, 01:23:04,VALID,915.913,VALID,0,VALID,97.0918,VALID,0,VALID,19.5288,VALID,144,VALID,0,
2013-12-13, 01:24:04,VALID,915.909,VALID,0,VALID,97.069,VALID,0,VALID,19.5273,VALID,123,VALID,0,
2013-12-13, 01:25:04,VALID,915.911,VALID,0,VALID,97.0842,VALID,0,VALID,19.5483,VALID,132,VALID,0,
2013-12-13, 01:26:04,VALID,915.872,VALID,0,VALID,97.0766,VALID,0,VALID,19.5078,VALID,140,VALID,0,
2013-12-13, 01:27:04,VALID,915.825,VALID,0,VALID,97.0766,VALID,0,VALID,19.5078,VALID,136,VALID,0,
2013-12-13, 01:28:04,VALID,915.809,VALID,0,VALID,97.0842,VALID,0,VALID,19.5078,VALID,152,VALID,0,
2013-12-13, 01:29:04,VALID,915.774,VALID,0,VALID,97.0842,VALID,0,VALID,19.5093,VALID,172,VALID,0,
2013-12-13, 01:30:04,VALID,915.735,VALID,0,VALID,97.0766,VALID,0,VALID,19.5288,VALID,184,VALID,0,
2013-12-13, 01:31:04,VALID,915.706,VALID,0.2,VALID,97.0766,VALID,0,VALID,19.5288,VALID,173,VALID,0,
2013-12-13, 01:32:04,VALID,915.702,VALID,0,VALID,97.0842,VALID,0,VALID,19.5288,VALID,171,VALID,0,
2013-12-13, 01:33:04,VALID,915.661,VALID,0,VALID,97.0842,VALID,0,VALID,19.5468,VALID,181,VALID,0,
2013-12-13, 01:34:04,VALID,915.609,VALID,0,VALID,97.0918,VALID,0,VALID,19.5288,VALID,172,VALID,0,
2013-12-13, 01:35:04,VALID,915.614,VALID,0,VALID,97.0842,VALID,0,VALID,19.5468,VALID,175,VALID,0,
2013-12-13, 01:36:04,VALID,915.543,VALID,0,VALID,97.0613,VALID,0,VALID,19.5288,VALID,178,VALID,0,
2013-12-13, 01:37:04,VALID,915.487,VALID,0,VALID,97.0613,VALID,0,VALID,19.5273,VALID,178,VALID,0,
2013-12-13, 01:38:04,VALID,915.458,VALID,0,VALID,97.0613,VALID,0,VALID,19.5873,VALID,178,VALID,0,
2013-12-13, 01:39:04,VALID,915.467,VALID,0,VALID,97.069,VALID,0,VALID,19.5873,VALID,178,VALID,0,
2013-12-13, 01:40:04,VALID,915.446,VALID,0,VALID,97.069,VALID,0,VALID,19.5078,VALID,173,VALID,0,
2013-12-13, 01:41:04,VALID,915.398,VALID,0,VALID,97.0994,VALID,0,VALID,19.5288,VALID,165,VALID,0,
2013-12-13, 01:42:04,VALID,915.338,VALID,0,VALID,97.0842,VALID,0.107441,VALID,19.5468,VALID,165,VALID,0,
2013-12-13, 01:43:04,VALID,915.311,VALID,0,VALID,97.0842,VALID,0,VALID,19.5288,VALID,155,VALID,0,
2013-12-13, 01:44:04,VALID,915.328,VALID,0,VALID,97.0766,VALID,0,VALID,19.5288,VALID,154,VALID,0,
2013-12-13, 01:45:04,VALID,915.257,VALID,0,VALID,97.0994,VALID,0,VALID,19.5078,VALID,154,VALID,0,
2013-12-13, 01:46:04,VALID,915.275,VALID,0,VALID,97.0766,VALID,0,VALID,19.5078,VALID,138,VALID,0,
2013-12-13, 01:47:04,VALID,915.23,VALID,0,VALID,97.0918,VALID,0,VALID,19.5273,VALID,139,VALID,0,
2013-12-13, 01:48:04,VALID,915.233,VALID,0,VALID,97.0918,VALID,0,VALID,19.5078,VALID,141,VALID,0,
2013-12-13, 01:49:04,VALID,915.223,VALID,0,VALID,97.0842,VALID,0,VALID,19.5468,VALID,149,VALID,0,
2013-12-13, 01:50:04,VALID,915.201,VALID,0,VALID,97.0842,VALID,0,VALID,19.5483,VALID,150,VALID,0,
2013-12-13, 01:51:04,VALID,915.173,VALID,0,VALID,97.0613,VALID,0,VALID,19.5678,VALID,145,VALID,0,
2013-12-13, 01:52:04,VALID,915.155,VALID,0,VALID,97.0842,VALID,0,VALID,19.5873,VALID,141,VALID,0,
2013-12-13, 01:53:04,VALID,915.137,VALID,0,VALID,97.0461,VALID,0,VALID,19.5273,VALID,141,VALID,0,
2013-12-13, 01:54:04,VALID,915.109,VALID,0,VALID,97.0461,VALID,0,VALID,19.5468,VALID,164,VALID,0,
2013-12-13, 01:55:04,VALID,915.055,VALID,0,VALID,97.0461,VALID,0,VALID,19.5468,VALID,164,VALID,0,
2013-12-13, 01:56:04,VALID,915.096,VALID,0,VALID,97.0385,VALID,0,VALID,19.5873,VALID,164,VALID,0,
2013-12-13, 01:57:04,VALID,915.008,VALID,0,VALID,97.0232,VALID,0,VALID,19.5483,VALID,164,VALID,0,
2013-12-13, 01:58:04,VALID,915.01,VALID,0,VALID,97.0232,VALID,0,VALID,19.5678,VALID,164,VALID,0,
2013-12-13, 01:59:04,VALID,915,VALID,0,VALID,97.0308,VALID,0.107441,VALID,19.5888,VALID,164,VALID,0,
2013-12-13, 02:00:04,VALID,914.976,VALID,0,VALID,97.0461,VALID,0,VALID,19.5273,VALID,164,VALID,0,
2013-12-13, 02:01:04,VALID,914.98,VALID,0,VALID,97.0385,VALID,0.107441,VALID,19.5483,VALID,152,VALID,0,
2013-12-13, 02:02:04,VALID,914.951,VALID,0,VALID,97.0308,VALID,0,VALID,19.5288,VALID,152,VALID,0,
2013-12-13, 02:03:04,VALID,914.914,VALID,0,VALID,97.0385,VALID,0,VALID,19.4883,VALID,140,VALID,0,
2013-12-13, 02:04:04,VALID,914.877,VALID,0,VALID,97.0461,VALID,0,VALID,19.4493,VALID,140,VALID,0,
2013-12-13, 02:05:04,VALID,914.866,VALID,0,VALID,97.0308,VALID,0,VALID,19.4703,VALID,101,VALID,0,
2013-12-13, 02:06:04,VALID,914.818,VALID,0,VALID,97.0385,VALID,0,VALID,19.4298,VALID,101,VALID,0,
2013-12-13, 02:07:04,VALID,914.755,VALID,0,VALID,97.0766,VALID,0,VALID,19.4118,VALID,101,VALID,0,
2013-12-13, 02:08:04,VALID,914.742,VALID,0,VALID,97.0308,VALID,0,VALID,19.3908,VALID,101,VALID,0,
2013-12-13, 02:09:04,VALID,914.712,VALID,0,VALID,97.0537,VALID,0,VALID,19.3908,VALID,101,VALID,0,
2013-12-13, 02:10:04,VALID,914.66,VALID,0,VALID,97.069,VALID,0,VALID,19.4118,VALID,101,VALID,0,
2013-12-13, 02:11:04,VALID,914.674,VALID,0,VALID,97.0766,VALID,0,VALID,19.3728,VALID,101,VALID,0,
2013-12-13, 02:12:04,VALID,914.649,VALID,0,VALID,97.0766,VALID,0,VALID,19.3518,VALID,101,VALID,0,
2013-12-13, 02:13:05,VALID,914.662,VALID,0,VALID,97.0613,VALID,0.107441,VALID,19.3923,VALID,101,VALID,0,
2013-12-13, 02:14:05,VALID,914.634,VALID,0,VALID,97.0918,VALID,0,VALID,19.3923,VALID,101,VALID,0,
2013-12-13, 02:15:05,VALID,914.668,VALID,0,VALID,97.0842,VALID,0,VALID,19.3728,VALID,101,VALID,0,
2013-12-13, 02:16:05,VALID,914.684,VALID,0,VALID,97.0766,VALID,0,VALID,19.3728,VALID,101,VALID,0,
2013-12-13, 02:17:05,VALID,914.68,VALID,0,VALID,97.0766,VALID,0,VALID,19.3713,VALID,101,VALID,0,
2013-12-13, 02:18:05,VALID,914.698,VALID,0,VALID,97.0766,VALID,0,VALID,19.3728,VALID,101,VALID,0,
2013-12-13, 02:19:05,VALID,914.702,VALID,0,VALID,97.0766,VALID,0,VALID,19.3713,VALID,52,VALID,0,
2013-12-13, 02:20:05,VALID,914.712,VALID,0,VALID,97.0842,VALID,0,VALID,19.3923,VALID,55,VALID,0,
2013-12-13, 02:21:05,VALID,914.695,VALID,0,VALID,97.0613,VALID,0,VALID,19.3518,VALID,54,VALID,0,
2013-12-13, 02:22:05,VALID,914.683,VALID,0,VALID,97.0613,VALID,0,VALID,19.3923,VALID,50,VALID,0,
2013-12-13, 02:23:05,VALID,914.666,VALID,0,VALID,97.0613,VALID,0,VALID,19.3728,VALID,58,VALID,0,
2013-12-13, 02:24:05,VALID,914.627,VALID,0,VALID,97.0613,VALID,0,VALID,19.3518,VALID,64,VALID,0,
2013-12-13, 02:25:05,VALID,914.613,VALID,0,VALID,97.0461,VALID,0,VALID,19.3728,VALID,78,VALID,0,
2013-12-13, 02:26:05,VALID,914.53,VALID,0,VALID,97.069,VALID,0.107441,VALID,19.3713,VALID,80,VALID,0,
2013-12-13, 02:27:05,VALID,914.511,VALID,0,VALID,97.0766,VALID,0,VALID,19.3728,VALID,81,VALID,0,
2013-12-13, 02:28:05,VALID,914.444,VALID,0,VALID,97.0842,VALID,0,VALID,19.3533,VALID,95,VALID,0,
2013-12-13, 02:29:05,VALID,914.436,VALID,0,VALID,97.0537,VALID,0,VALID,19.3533,VALID,97,VALID,0,
2013-12-13, 02:30:05,VALID,914.404,VALID,0,VALID,97.0842,VALID,0,VALID,19.3533,VALID,97,VALID,0,
2013-12-13, 02:31:05,VALID,914.367,VALID,0,VALID,97.0918,VALID,0,VALID,19.3533,VALID,97,VALID,0,
2013-12-13, 02:32:05,VALID,914.354,VALID,0,VALID,97.0766,VALID,0,VALID,19.3128,VALID,97,VALID,0,
2013-12-13, 02:33:05,VALID,914.304,VALID,0,VALID,97.0842,VALID,0,VALID,19.3323,VALID,97,VALID,0,
2013-12-13, 02:34:05,VALID,914.292,VALID,0,VALID,97.0842,VALID,0,VALID,19.3128,VALID,97,VALID,0,
2013-12-13, 02:35:05,VALID,914.274,VALID,0,VALID,97.0918,VALID,0,VALID,19.3323,VALID,97,VALID,0,
2013-12-13, 02:36:05,VALID,914.256,VALID,0,VALID,97.0766,VALID,0,VALID,19.3338,VALID,97,VALID,0,
2013-12-13, 02:37:05,VALID,914.255,VALID,0,VALID,97.0994,VALID,0,VALID,19.3323,VALID,97,VALID,0,
2013-12-13, 02:38:05,VALID,914.243,VALID,0,VALID,97.0994,VALID,0.107441,VALID,19.3323,VALID,97,VALID,0,
2013-12-13, 02:39:05,VALID,914.259,VALID,0,VALID,97.0766,VALID,0.107441,VALID,19.3338,VALID,97,VALID,0,
2013-12-13, 02:40:05,VALID,914.252,VALID,0,VALID,97.1147,VALID,0,VALID,19.3128,VALID,97,VALID,0,
2013-12-13, 02:41:05,VALID,914.248,VALID,0,VALID,97.1071,VALID,0,VALID,19.3143,VALID,127,VALID,0,
2013-12-13, 02:42:05,VALID,914.276,VALID,0,VALID,97.1071,VALID,0.107441,VALID,19.3143,VALID,124,VALID,0,
2013-12-13, 02:43:05,VALID,914.254,VALID,0,VALID,97.0766,VALID,0,VALID,19.2933,VALID,124,VALID,0,
2013-12-13, 02:44:05,VALID,914.255,VALID,0,VALID,97.0918,VALID,0,VALID,19.3128,VALID,123,VALID,0,
2013-12-13, 02:45:05,VALID,914.266,VALID,0,VALID,97.1147,VALID,0,VALID,19.3338,VALID,122,VALID,0,
2013-12-13, 02:46:05,VALID,914.237,VALID,0,VALID,97.0994,VALID,0,VALID,19.3338,VALID,115,VALID,0,
2013-12-13, 02:47:05,VALID,914.236,VALID,0,VALID,97.1071,VALID,0,VALID,19.3128,VALID,95,VALID,0,
2013-12-13, 02:48:05,VALID,914.235,VALID,0,VALID,97.0918,VALID,0,VALID,19.3128,VALID,103,VALID,0,
2013-12-13, 02:49:05,VALID,914.253,VALID,0,VALID,97.0918,VALID,0,VALID,19.2948,VALID,80,VALID,0,
2013-12-13, 02:50:05,VALID,914.233,VALID,0,VALID,97.0918,VALID,0,VALID,19.2558,VALID,81,VALID,0,
2013-12-13, 02:51:05,VALID,914.249,VALID,0,VALID,97.1071,VALID,0,VALID,19.2753,VALID,80,VALID,0,
2013-12-13, 02:52:05,VALID,914.221,VALID,0,VALID,97.1147,VALID,0,VALID,19.2558,VALID,80,VALID,0,
2013-12-13, 02:53:05,VALID,914.239,VALID,0,VALID,97.1071,VALID,0,VALID,19.2348,VALID,92,VALID,0,
2013-12-13, 02:54:05,VALID,914.258,VALID,0,VALID,97.1147,VALID,0,VALID,19.2348,VALID,96,VALID,0,
2013-12-13, 02:55:05,VALID,914.268,VALID,0,VALID,97.0994,VALID,0,VALID,19.2153,VALID,79,VALID,0,
2013-12-13, 02:56:05,VALID,914.272,VALID,0,VALID,97.1223,VALID,0.107441,VALID,19.2153,VALID,40,VALID,0,
2013-12-13, 02:57:05,VALID,914.272,VALID,0,VALID,97.1376,VALID,0,VALID,19.1973,VALID,24,VALID,0,
2013-12-13, 02:58:05,VALID,914.356,VALID,0,VALID,97.1376,VALID,0,VALID,19.1763,VALID,36,VALID,0,
2013-12-13, 02:59:05,VALID,914.337,VALID,0,VALID,97.1528,VALID,0,VALID,19.1763,VALID,39,VALID,0,
2013-12-13, 03:00:05,VALID,914.341,VALID,0,VALID,97.1299,VALID,0,VALID,19.1763,VALID,29,VALID,0,
2013-12-13, 03:01:05,VALID,914.357,VALID,0,VALID,97.1376,VALID,0,VALID,19.1958,VALID,35,VALID,0,
2013-12-13, 03:02:05,VALID,914.358,VALID,0,VALID,97.1376,VALID,0,VALID,19.1958,VALID,38,VALID,0,
2013-12-13, 03:03:05,VALID,914.361,VALID,0,VALID,97.1376,VALID,0,VALID,19.2168,VALID,19,VALID,0,
2013-12-13, 03:04:05,VALID,914.345,VALID,0,VALID,97.1376,VALID,0,VALID,19.1958,VALID,13,VALID,0,
2013-12-13, 03:05:05,VALID,914.312,VALID,0,VALID,97.1528,VALID,0.107441,VALID,19.1763,VALID,5,VALID,0,
2013-12-13, 03:06:05,VALID,914.326,VALID,0,VALID,97.1528,VALID,0,VALID,19.1778,VALID,358,VALID,0,
2013-12-13, 03:07:05,VALID,914.301,VALID,0,VALID,97.1681,VALID,0,VALID,19.1763,VALID,359,VALID,0,
2013-12-13, 03:08:05,VALID,914.293,VALID,0,VALID,97.1681,VALID,0,VALID,19.1583,VALID,358,VALID,0,
2013-12-13, 03:09:05,VALID,914.307,VALID,0,VALID,97.1681,VALID,0.107441,VALID,19.1568,VALID,359,VALID,0,
2013-12-13, 03:10:05,VALID,914.308,VALID,0,VALID,97.1681,VALID,0.107441,VALID,19.1568,VALID,359,VALID,0,
2013-12-13, 03:11:05,VALID,914.302,VALID,0,VALID,97.1681,VALID,0,VALID,19.1778,VALID,358,VALID,0,
2013-12-13, 03:12:05,VALID,914.312,VALID,0,VALID,97.1757,VALID,0,VALID,19.1568,VALID,358,VALID,0,
2013-12-13, 03:13:05,VALID,914.312,VALID,0,VALID,97.1604,VALID,0,VALID,19.1763,VALID,358,VALID,0,
2013-12-13, 03:14:05,VALID,914.31,VALID,0,VALID,97.2062,VALID,0,VALID,19.1958,VALID,358,VALID,0,
2013-12-13, 03:15:05,VALID,914.34,VALID,0,VALID,97.1833,VALID,0,VALID,19.1958,VALID,358,VALID,0,
2013-12-13, 03:16:05,VALID,914.33,VALID,0,VALID,97.1986,VALID,0,VALID,19.1763,VALID,359,VALID,0,
2013-12-13, 03:17:05,VALID,914.372,VALID,0,VALID,97.1909,VALID,0.107441,VALID,19.1958,VALID,359,VALID,0,
2013-12-13, 03:18:05,VALID,914.377,VALID,0,VALID,97.1909,VALID,0,VALID,19.1778,VALID,359,VALID,0,
2013-12-13, 03:19:05,VALID,914.358,VALID,0,VALID,97.1986,VALID,0.107441,VALID,19.1373,VALID,358,VALID,0,
2013-12-13, 03:20:05,VALID,914.355,VALID,0,VALID,97.1833,VALID,0.107441,VALID,19.1568,VALID,359,VALID,0,
2013-12-13, 03:21:05,VALID,914.349,VALID,0,VALID,97.1909,VALID,0,VALID,19.1583,VALID,358,VALID,0,
2013-12-13, 03:22:05,VALID,914.37,VALID,0,VALID,97.2062,VALID,0,VALID,19.1373,VALID,333,VALID,0,
2013-12-13, 03:23:05,VALID,914.35,VALID,0,VALID,97.2138,VALID,0,VALID,19.1583,VALID,290,VALID,0,
2013-12-13, 03:24:05,VALID,914.366,VALID,0,VALID,97.2214,VALID,0,VALID,19.1583,VALID,290,VALID,0,
2013-12-13, 03:25:05,VALID,914.389,VALID,0,VALID,97.229,VALID,0.107441,VALID,19.1568,VALID,309,VALID,0,
2013-12-13, 03:26:05,VALID,914.387,VALID,0,VALID,97.2214,VALID,0,VALID,19.1778,VALID,331,VALID,0,
2013-12-13, 03:27:05,VALID,914.378,VALID,0,VALID,97.2214,VALID,0.107441,VALID,19.1568,VALID,328,VALID,0,
2013-12-13, 03:28:05,VALID,914.371,VALID,0,VALID,97.2138,VALID,0,VALID,19.1778,VALID,327,VALID,0,
2013-12-13, 03:29:05,VALID,914.328,VALID,0,VALID,97.2214,VALID,0.107441,VALID,19.1583,VALID,330,VALID,0,
2013-12-13, 03:30:05,VALID,914.322,VALID,0,VALID,97.229,VALID,0,VALID,19.1193,VALID,351,VALID,0,
2013-12-13, 03:31:05,VALID,914.38,VALID,0,VALID,97.2214,VALID,0,VALID,19.0788,VALID,323,VALID,0,
2013-12-13, 03:32:05,VALID,914.363,VALID,0,VALID,97.229,VALID,0,VALID,19.0983,VALID,299,VALID,0,
2013-12-13, 03:33:05,VALID,914.367,VALID,0,VALID,97.2367,VALID,0,VALID,19.1388,VALID,299,VALID,0,
2013-12-13, 03:34:05,VALID,914.363,VALID,0,VALID,97.2214,VALID,0,VALID,19.1193,VALID,296,VALID,0,
2013-12-13, 03:35:05,VALID,914.393,VALID,0,VALID,97.2367,VALID,0.107441,VALID,19.1583,VALID,296,VALID,0,
2013-12-13, 03:36:05,VALID,914.382,VALID,0,VALID,97.2367,VALID,0,VALID,19.1373,VALID,316,VALID,0,
2013-12-13, 03:37:05,VALID,914.395,VALID,0,VALID,97.2214,VALID,0,VALID,19.1373,VALID,360,VALID,0,
2013-12-13, 03:38:05,VALID,914.394,VALID,0,VALID,97.229,VALID,0,VALID,19.1388,VALID,358,VALID,0,
2013-12-13, 03:39:05,VALID,914.38,VALID,0.2,VALID,97.229,VALID,0,VALID,19.1388,VALID,336,VALID,0,
2013-12-13, 03:40:05,VALID,914.38,VALID,0,VALID,97.2214,VALID,0,VALID,19.1388,VALID,344,VALID,0,
2013-12-13, 03:41:05,VALID,914.414,VALID,0,VALID,97.2214,VALID,0.107441,VALID,19.0788,VALID,329,VALID,0,
2013-12-13, 03:42:05,VALID,914.453,VALID,0,VALID,97.2367,VALID,0.107441,VALID,19.0998,VALID,277,VALID,0,
2013-12-13, 03:43:05,VALID,914.484,VALID,0,VALID,97.2519,VALID,0,VALID,19.1178,VALID,277,VALID,0,
2013-12-13, 03:44:05,VALID,914.48,VALID,0,VALID,97.2367,VALID,0.107441,VALID,19.1388,VALID,277,VALID,0,
2013-12-13, 03:45:05,VALID,914.478,VALID,0,VALID,97.2443,VALID,0.107441,VALID,19.1178,VALID,277,VALID,0,
2013-12-13, 03:46:05,VALID,914.493,VALID,0,VALID,97.2367,VALID,0,VALID,19.1388,VALID,277,VALID,0,
2013-12-13, 03:47:05,VALID,914.476,VALID,0,VALID,97.2443,VALID,0,VALID,19.1583,VALID,304,VALID,0,
2013-12-13, 03:48:05,VALID,914.456,VALID,0,VALID,97.2519,VALID,0,VALID,19.1373,VALID,360,VALID,0,
2013-12-13, 03:49:05,VALID,914.434,VALID,0,VALID,97.2595,VALID,0,VALID,19.1193,VALID,10,VALID,0,
2013-12-13, 03:50:05,VALID,914.475,VALID,0,VALID,97.2519,VALID,0,VALID,19.0983,VALID,7,VALID,0,
2013-12-13, 03:51:05,VALID,914.479,VALID,0,VALID,97.2519,VALID,0,VALID,19.0803,VALID,328,VALID,0,
2013-12-13, 03:52:05,VALID,914.51,VALID,0,VALID,97.2748,VALID,0,VALID,19.0803,VALID,326,VALID,0,
2013-12-13, 03:53:05,VALID,914.502,VALID,0,VALID,97.2672,VALID,0,VALID,19.0608,VALID,326,VALID,0,
2013-12-13, 03:54:05,VALID,914.505,VALID,0,VALID,97.2672,VALID,0,VALID,19.0608,VALID,331,VALID,0,
2013-12-13, 03:55:05,VALID,914.5,VALID,0,VALID,97.2672,VALID,0,VALID,19.0413,VALID,17,VALID,0,
2013-12-13, 03:56:05,VALID,914.543,VALID,0,VALID,97.2824,VALID,0,VALID,19.0218,VALID,17,VALID,0,
2013-12-13, 03:57:05,VALID,914.562,VALID,0,VALID,97.2748,VALID,0,VALID,18.9814,VALID,17,VALID,0,
2013-12-13, 03:58:05,VALID,914.584,VALID,0,VALID,97.2672,VALID,0,VALID,19.0037,VALID,17,VALID,0,